Location: ???????????
(55.5758°N, 38.4970°E)
Time: 17:35:21
(UTC+00:00)

SJ 16-02 - Pass Details

Date: 15 November 2025
Orbit: 585 x 594 km, 75.0° (Epoch: 14 December)

Event Time Altitude Azimuth Distance (km) Brightness Sun altitude
Exits shadow 00:39:26 12° 102° (ESE) 1,811 4.3 -36.2°
Drops below altitude 10° 00:39:46 10° 105° (ESE) 1,921 4.4 -36.1°
Sets 00:42:17 0° 119° (ESE) 2,816 5.2 -35.8°
